Location: Oshawa
(43.9000°N, 78.8670°W)
Time: 07:14:40
(UTC-04:00)

Amateur Radio Satellites - All Passes

Search period start: 01 September 2014 06:44
Search period end: 02 September 2014 06:44
Location: Oshawa, 43.9000°N, 78.8670°W

Satellite Date Start Highest point End Downlink Frequencies (MHz)
Time Altitude Azimuth
Saudisat 1A 01 Sep 06:57:55 07:02:10 44° 49° (NE) 07:06:23 436.775 MHz
KITSAT 1 01 Sep 07:02:46 07:09:39 29° 36° (NE) 07:16:29 435.175 FM
JAS-2 01 Sep 07:22:28 07:27:44 76° 103° (ESE) 07:33:25 435.800 - 435.900 CW/SSB, 435.910 FM
SO-67 01 Sep 07:35:43 07:38:02 17° 93° (E) 07:40:20 435.3500 MHz FM
Uosat F 01 Sep 07:38:41 07:40:06 11° 304° (NW) 07:41:31 435.120 FM
Hamsat 01 Sep 07:43:25 07:47:40 51° 287° (WNW) 07:51:50 145.90 MHz
RS-15 01 Sep 08:00:45 08:11:35 64° 116° (ESE) 08:22:16 29.354 - 29.394 USB, Beacon 29.352 USB
UOSAT-12 01 Sep 08:12:29 08:14:47 13° 329° (NNW) 08:17:06 437.025 FM, 437.400 FM
STRAND 1 01 Sep 08:18:30 08:22:30 23° 267° (W) 08:26:31 ?
AO-7 01 Sep 08:26:21 08:31:12 17° 315° (NW) 08:36:03 29.400 - 29.500 MHz
HO-68 01 Sep 08:35:32 08:36:43 10° 85° (E) 08:37:54 435.675 MHz FM
Saudisat 1A 01 Sep 08:38:02 08:41:30 23° 247° (WSW) 08:44:56 436.775 MHz
KITSAT 1 01 Sep 08:57:56 09:06:03 86° 239° (WSW) 09:14:07 435.175 FM
SO-67 01 Sep 09:08:06 09:11:09 29° 289° (WNW) 09:14:10 435.3500 MHz FM
JAS-2 01 Sep 09:09:18 09:12:20 16° 300° (WNW) 09:15:28 435.800 - 435.900 CW/SSB, 435.910 FM
UKube-1 01 Sep 09:38:29 09:40:38 13° 91° (E) 09:42:46 145.840 MHz, 145.915 MHz
Oscar 11 01 Sep 09:44:43 09:44:52 10° 88° (E) 09:45:01 145.825 FM, Beacon 2401.500 USB
RS-15 01 Sep 10:14:02 10:24:27 46° 321° (NW) 10:34:52 29.354 - 29.394 USB, Beacon 29.352 USB
HO-68 01 Sep 10:18:37 10:25:45 65° 103° (ESE) 10:32:51 435.675 MHz FM
ISS 01 Sep 10:36:27 10:39:39 46° 142° (SE) 10:42:51 145.800 FM
KITSAT 1 01 Sep 10:55:10 11:00:17 19° 259° (W) 11:05:25 435.175 FM
UKube-1 01 Sep 11:12:56 11:17:13 60° 287° (WNW) 11:21:29 145.840 MHz, 145.915 MHz
Oscar 11 01 Sep 11:17:13 11:21:36 79° 285° (WNW) 11:25:58 145.825 FM, Beacon 2401.500 USB
SO-50 01 Sep 11:27:28 11:31:34 28° 43° (NE) 11:35:43 436.795 FM
AO-40 01 Sep 11:42:37 06:44:10 22° 234° (SW) 11:49:28 Beacon 2401.320
FUNcube-1 01 Sep 11:47:19 11:51:53 87° 104° (ESE) 11:56:30 145.950 - 145.970 MHz USB
HO-68 01 Sep 12:07:07 12:12:56 28° 302° (WNW) 12:18:46 435.675 MHz FM
JAS-1B 01 Sep 12:11:17 12:15:18 14° 48° (NE) 12:19:06 435.800 - 435.900 CW/SSB
ISS 01 Sep 12:13:23 12:16:28 34° 340° (NNW) 12:19:33 145.800 FM
RS-15 01 Sep 12:31:57 12:40:31 25° 354° (N) 12:49:11 29.354 - 29.394 USB, Beacon 29.352 USB
Oscar 19 01 Sep 12:50:08 12:54:08 23° 63° (ENE) 12:58:10 437.125 CW, 437.150 USB
AO-Echo 01 Sep 13:05:15 13:07:59 15° 60° (ENE) 13:10:42 ?
SO-50 01 Sep 13:07:45 13:12:21 48° 241° (WSW) 13:17:00 436.795 FM
MaSat-1 01 Sep 13:14:35 13:19:23 53° 111° (ESE) 13:24:25 437.345 MHz
UOSAT-12 01 Sep 13:17:42 13:21:47 27° 43° (NE) 13:25:48 437.025 FM, 437.400 FM
Oscar 16 01 Sep 13:24:11 13:29:06 47° 70° (ENE) 13:34:04 437.025 USB, Beacon 2401.1428
FUNcube-1 01 Sep 13:26:06 13:27:36 12° 300° (WNW) 13:29:07 145.950 - 145.970 MHz USB
ITAMSAT 1 01 Sep 13:26:33 13:30:30 23° 63° (ENE) 13:34:28 435.822 SSB
Uribyol 2 01 Sep 13:35:34 13:39:55 28° 65° (ENE) 13:44:17 436.500 FM
TMSAT-1 01 Sep 13:47:03 13:49:12 13° 56° (ENE) 13:51:22 436.925 FM
ISS 01 Sep 13:51:15 13:53:52 21° 0° (N) 13:56:29 145.800 FM
AO-7 01 Sep 13:54:13 13:56:56 12° 39° (NE) 13:59:39 29.400 - 29.500 MHz
JAS-1B 01 Sep 13:54:56 14:04:11 54° 67° (ENE) 14:12:23 435.800 - 435.900 CW/SSB
AO-27 01 Sep 13:55:02 13:59:49 40° 68° (ENE) 14:04:38 436.795 MHz FM
Oscar 19 01 Sep 14:28:10 14:33:09 49° 261° (W) 14:38:12 437.125 CW, 437.150 USB
Gurwin Techsat 1B 01 Sep 14:33:06 14:38:01 41° 68° (ENE) 14:42:57 435.225 FM
AO-Echo 01 Sep 14:41:13 14:46:13 74° 257° (WSW) 14:51:06 ?
RS-15 01 Sep 14:47:32 14:57:20 35° 29° (NNE) 15:07:19 29.354 - 29.394 USB, Beacon 29.352 USB
MaSat-1 01 Sep 14:52:33 14:56:43 25° 311° (NW) 15:00:59 437.345 MHz
UOSAT-12 01 Sep 14:57:36 15:02:08 46° 242° (WSW) 15:06:35 437.025 FM, 437.400 FM
Oscar 16 01 Sep 15:04:38 15:08:41 23° 267° (W) 15:12:46 437.025 USB, Beacon 2401.1428
ITAMSAT 1 01 Sep 15:04:39 15:09:40 50° 260° (W) 15:14:42 435.822 SSB
Uribyol 2 01 Sep 15:14:26 15:19:14 39° 262° (W) 15:24:04 436.500 FM
TMSAT-1 01 Sep 15:23:00 15:28:17 82° 75° (ENE) 15:33:36 436.925 FM
ISS 01 Sep 15:28:10 15:31:16 35° 20° (NNE) 15:34:22 145.800 FM
Uosat F 01 Sep 15:34:34 15:38:24 23° 63° (ENE) 15:42:14 435.120 FM
AO-27 01 Sep 15:35:06 15:39:27 27° 265° (W) 15:43:49 436.795 MHz FM
AO-7 01 Sep 15:39:52 15:47:40 46° 61° (ENE) 15:55:27 29.400 - 29.500 MHz
Sapphire 01 Sep 15:41:44 15:42:46 11° 101° (E) 15:43:49 437.095 MHz 1200 baud AX-25 AFSK
JAS-1B 01 Sep 15:45:39 15:54:43 43° 263° (W) 16:02:57 435.800 - 435.900 CW/SSB
PCSat 01 Sep 16:07:39 16:11:38 21° 107° (ESE) 16:15:38 145.825 MHz
Gurwin Techsat 1B 01 Sep 16:13:36 16:18:05 28° 266° (W) 16:22:37 435.225 FM
RS-15 01 Sep 17:00:12 17:11:20 87° 56° (NE) 17:22:54 29.354 - 29.394 USB, Beacon 29.352 USB
OPAL 01 Sep 17:00:59 17:05:09 24° 96° (E) 17:09:17 ?
Hamsat 01 Sep 17:04:09 17:06:30 15° 62° (ENE) 17:08:52 145.90 MHz
ISS 01 Sep 17:04:52 17:08:04 44° 219° (SW) 17:11:15 145.800 FM
TMSAT-1 01 Sep 17:06:23 17:08:51 13° 272° (W) 17:11:19 436.925 FM
Uosat F 01 Sep 17:12:02 17:16:52 48° 260° (W) 17:21:43 435.120 FM
Sapphire 01 Sep 17:19:51 17:25:15 78° 119° (ESE) 17:30:41 437.095 MHz 1200 baud AX-25 AFSK
AO-7 01 Sep 17:32:36 17:40:27 44° 260° (W) 17:48:20 29.400 - 29.500 MHz
JAS-2 01 Sep 17:36:34 17:41:58 37° 68° (ENE) 17:46:54 435.800 - 435.900 CW/SSB, 435.910 FM
PCSat 01 Sep 17:49:15 17:54:35 59° 305° (NW) 17:59:58 145.825 MHz
Hamsat 01 Sep 18:37:40 18:41:57 62° 259° (W) 18:46:17 145.90 MHz
OPAL 01 Sep 18:39:14 18:44:14 48° 293° (WNW) 18:49:12 ?
STRAND 1 01 Sep 18:49:06 18:51:34 13° 89° (E) 18:54:02 ?
Sapphire 01 Sep 19:05:15 19:09:18 21° 319° (NW) 19:13:22 437.095 MHz 1200 baud AX-25 AFSK
HO-68 01 Sep 19:06:24 19:09:03 12° 46° (NE) 19:11:42 435.675 MHz FM
RS-15 01 Sep 19:13:55 19:22:21 26° 258° (WSW) 19:31:04 29.354 - 29.394 USB, Beacon 29.352 USB
JAS-2 01 Sep 19:21:45 19:27:06 32° 263° (W) 19:32:01 435.800 - 435.900 CW/SSB, 435.910 FM
PCSat 01 Sep 19:36:26 19:39:11 14° 327° (NNW) 19:41:56 145.825 MHz
SO-67 01 Sep 19:41:46 19:45:13 74° 258° (WSW) 19:48:42 435.3500 MHz FM
STRAND 1 01 Sep 20:26:13 20:31:20 77° 286° (WNW) 20:36:26 ?
UKube-1 01 Sep 20:35:35 20:38:08 16° 62° (ENE) 20:40:42 145.840 MHz, 145.915 MHz
Oscar 11 01 Sep 20:41:02 20:42:09 11° 59° (ENE) 20:43:17 145.825 FM, Beacon 2401.500 USB
HO-68 01 Sep 20:48:20 20:55:15 56° 67° (ENE) 21:02:12 435.675 MHz FM
MaSat-1 01 Sep 21:31:35 21:34:59 19° 46° (NE) 21:38:05 437.345 MHz
STRAND 1 01 Sep 22:08:09 22:09:40 11° 304° (NW) 22:11:11 ?
UKube-1 01 Sep 22:09:38 22:13:54 57° 259° (W) 22:18:11 145.840 MHz, 145.915 MHz
Oscar 11 01 Sep 22:13:19 22:17:40 85° 258° (WSW) 22:22:03 145.825 FM, Beacon 2401.500 USB
HO-68 01 Sep 22:37:11 22:43:17 30° 265° (W) 22:49:25 435.675 MHz FM
Saudisat 1A 01 Sep 22:44:40 22:49:01 66° 121° (ESE) 22:53:25 436.775 MHz
FUNcube-1 01 Sep 22:45:09 22:49:20 82° 76° (ENE) 22:53:39 145.950 - 145.970 MHz USB
MaSat-1 01 Sep 23:07:59 23:12:26 54° 248° (WSW) 23:16:16 437.345 MHz
KITSAT 1 01 Sep 23:27:13 23:35:03 57° 114° (ESE) 23:42:54 435.175 FM
Sapphire 02 Sep 00:24:07 00:27:43 18° 38° (NE) 00:31:18 437.095 MHz 1200 baud AX-25 AFSK
Saudisat 1A 02 Sep 00:25:46 00:29:02 20° 321° (NW) 00:32:19 436.775 MHz
PCSat 02 Sep 00:52:52 00:57:28 27° 45° (NE) 01:02:03 145.825 MHz
KITSAT 1 02 Sep 01:23:13 01:30:45 41° 316° (NW) 01:38:19 435.175 FM
Oscar 16 02 Sep 01:35:56 01:38:47 15° 89° (E) 01:41:37 437.025 USB, Beacon 2401.1428
Sapphire 02 Sep 02:06:32 02:12:01 83° 59° (ENE) 02:17:26 437.095 MHz 1200 baud AX-25 AFSK
AO-27 02 Sep 02:08:33 02:10:37 12° 88° (E) 02:12:41 436.795 MHz FM
PCSat 02 Sep 02:35:55 02:41:13 55° 245° (WSW) 02:46:28 145.825 MHz
Oscar 19 02 Sep 02:38:11 02:43:17 53° 100° (E) 02:48:20 437.125 CW, 437.150 USB
AO-Echo 02 Sep 02:47:20 02:51:28 30° 96° (E) 02:55:37 ?
Gurwin Techsat 1B 02 Sep 02:49:19 02:52:04 14° 89° (E) 02:54:48 435.225 FM
Oscar 16 02 Sep 03:13:29 03:18:41 73° 287° (WNW) 03:23:51 437.025 USB, Beacon 2401.1428
ITAMSAT 1 02 Sep 03:15:56 03:21:00 52° 100° (E) 03:26:03 435.822 SSB
KITSAT 1 02 Sep 03:23:48 03:28:45 17° 343° (NNW) 03:33:42 435.175 FM
SO-50 02 Sep 03:24:01 03:28:11 40° 117° (ESE) 03:32:27 436.795 FM
Uribyol 2 02 Sep 03:25:13 03:30:24 67° 102° (ESE) 03:35:35 436.500 FM
JAS-1B 02 Sep 03:30:58 03:37:37 62° 101° (E) 03:43:23 435.800 - 435.900 CW/SSB
TMSAT-1 02 Sep 03:37:53 03:42:28 29° 95° (E) 03:47:02 436.925 FM
AO-7 02 Sep 03:44:40 03:45:33 10° 84° (E) 03:46:26 29.400 - 29.500 MHz
AO-27 02 Sep 03:45:35 03:50:48 85° 285° (WNW) 03:55:59 436.795 MHz FM
Sapphire 02 Sep 03:51:49 03:54:41 15° 257° (WSW) 03:57:33 437.095 MHz 1200 baud AX-25 AFSK
OPAL 02 Sep 04:16:55 04:21:47 49° 67° (ENE) 04:26:45 ?
Oscar 19 02 Sep 04:18:21 04:22:15 22° 298° (WNW) 04:26:09 437.125 CW, 437.150 USB
AO-Echo 02 Sep 04:26:08 04:30:13 30° 293° (WNW) 04:34:19 ?
Gurwin Techsat 1B 02 Sep 04:27:19 04:32:38 78° 286° (WNW) 04:37:56 435.225 FM
Oscar 16 02 Sep 04:55:45 04:57:07 11° 305° (NW) 04:58:28 437.025 USB, Beacon 2401.1428
ITAMSAT 1 02 Sep 04:56:12 05:00:09 23° 298° (WNW) 05:04:05 435.822 SSB
SO-50 02 Sep 05:04:54 05:08:51 29° 316° (NW) 05:12:53 436.795 FM
Uribyol 2 02 Sep 05:05:56 05:09:21 18° 300° (WNW) 05:12:47 436.500 FM
UOSAT-12 02 Sep 05:09:55 05:14:10 38° 117° (ESE) 05:18:31 437.025 FM, 437.400 FM
TMSAT-1 02 Sep 05:17:35 05:22:28 39° 292° (WNW) 05:27:20 436.925 FM
Uosat F 02 Sep 05:18:11 05:23:00 46° 99° (E) 05:27:47 435.120 FM
JAS-1B 02 Sep 05:22:30 05:27:36 23° 304° (NW) 05:32:13 435.800 - 435.900 CW/SSB
KITSAT 1 02 Sep 05:23:19 05:28:05 16° 15° (NNE) 05:32:50 435.175 FM
AO-27 02 Sep 05:27:18 05:29:31 13° 303° (WNW) 05:31:43 436.795 MHz FM
Saudisat 1A 02 Sep 05:31:46 05:34:16 15° 34° (NE) 05:36:45 436.775 MHz
AO-7 02 Sep 05:31:50 05:40:02 60° 103° (ESE) 05:48:10 29.400 - 29.500 MHz
OPAL 02 Sep 05:56:59 06:00:55 22° 265° (W) 06:04:54 ?
STRAND 1 02 Sep 06:05:51 06:09:52 24° 63° (ENE) 06:13:54 ?
Gurwin Techsat 1B 02 Sep 06:09:47 06:11:43 12° 304° (NW) 06:13:38 435.225 FM
Hamsat 02 Sep 06:22:45 06:26:07 22° 93° (E) 06:29:26 145.90 MHz
JAS-2 02 Sep 06:28:03 06:32:29 26° 95° (E) 06:37:12 435.800 - 435.900 CW/SSB, 435.910 FM
